Regional Weather Roundup
Issued by NWS Sterling, VA

Home | Current Version | Previous Version | Graphics & Text | Print | Product List | Glossary On
Versions: 1 2 3 4 5 6 7 8 9 10 11 12 13 14 15 16 17 18 19 20 21 22 23 24 25 26 27 28 29 30 31 32 33 34 35 36 37 38 39 40 41 42 43 44 45 46 47 48 49 50
000
ASUS41 KLWX 271410
RWRLWX

REGIONAL WEATHER ROUNDUP
NATIONAL WEATHER SERVICE BALTIMORE MD/WASHINGTON DC
900 AM EST TUE JAN 27 2015

Note: "FAIR" indicates few or no clouds below 12,000 feet
with no significant weather and/or obstructions to visibility.
 TC=TEMPERATURE CELSIUS

 * =Non NWS site. Station does not report precipitation (e.g. rain,
    snow, etc.), thunder, or fog.

DCZ001-MDZ009-015-VAZ040>042-051-053>054-271500-
WASHINGTON METRO

CITY           SKY/WX    TMP DP  RH WIND       PRES   REMARKS
WASHINGTON NAT CLOUDY    32  21  64 NW13G18   29.82S WCI  22
DULLES         PTSUNNY   27  20  75 NW15      29.82R WCI  15
ANDREWS AFB    CLOUDY    28  23  79 NW13      29.79R WCI  18
FT BELVOIR     CLOUDY    29  22  74 NW17      29.83R WCI  17
QUANTICO       CLOUDY    30  22  72 N16G24    29.84R WCI  19
COLLEGE PARK*  CLOUDY    32  23  69 NW8       29.81R WCI  25
LEESBURG*      CLOUDY    28  25  86 N10G22    29.83R WCI  19
MANASSAS*      CLOUDY    30  27  86 N10G21    29.83R WCI  21
GAITHERSBURG*  PTSUNNY   27  19  74 NW9       29.82S WCI  17

$$

MDZ006>007-011-014-271500-
BALTIMORE METRO

CITY           SKY/WX    TMP DP  RH WIND       PRES   REMARKS
BWI AIRPORT    CLOUDY    29  22  75 NW8       29.79R WCI  21
MD SCIENCE CTR   N/A     29  21  72 MISG      29.79R
MARTIN STATE   MOSUNNY   30  25  80 NW9       29.80R WCI  22
ANNAPOLIS      CLOUDY    30  24  78 NW15      29.79R WCI  19
FORT MEADE*    CLOUDY    30  25  80 NE6       29.82R

$$

MDZ012-015-019>023-271500-
MARYLAND EASTERN SHORE

CITY           SKY/WX    TMP DP  RH WIND       PRES   REMARKS
OCEAN CITY     CLOUDY    29  22  75 N20G26    29.73R WCI  16
SALISBURY      CLOUDY    32  22  66 N15       29.74R WCI  22
BAY BRIDGE AP*   N/A     32  25  74 NW9       29.79S WCI  24
CAMBRIDGE*     PTSUNNY   32  23  69 N13       29.76S WCI  22
EASTON*        CLOUDY    32  28  86 N12       29.81  FOG     WCI  23

$$

MDZ017>025-271500-
SOUTHERN MARYLAND

CITY           SKY/WX    TMP DP  RH WIND       PRES   REMARKS
PATUXENT RIVER CLOUDY    30  24  78 NW16      29.78R WCI  19
ST INIGOES     CLOUDY    31  23  72 NW8       29.78R WCI  23
LEONARDTOWN*   CLOUDY    30  25  80 CALM      29.80R

$$

MDZ003>005-271500-
NORTH CENTRAL MARYLAND

CITY           SKY/WX    TMP DP  RH WIND       PRES   REMARKS
FREDERICK*     PTSUNNY   28  21  74 CALM      29.85R
HAGERSTOWN APT CLOUDY    26  18  71 NW13      29.81S WCI  15
WESTMINSTER*   MOSUNNY   27  23  86 NW7       29.76S

$$

MDZ501>502-271500-
WESTERN MARYLAND

CITY           SKY/WX    TMP DP  RH WIND       PRES   REMARKS
OAKLAND*       FOG       14 N/A N/A CALM      29.75R VSB 3/4
CUMBERLAND*    MOSUNNY   27  18  69 CALM      29.91S

$$

VAZ025>031-271500-
SHENANDOAH VALLEY

CITY           SKY/WX    TMP DP  RH WIND       PRES   REMARKS
WINCHESTER*    LGT SNOW  28  21  74 NW9       29.83S WCI  20
FRONT ROYAL*   CLOUDY    28  23  80 CALM      29.83R
LURAY*         LGT SNOW  30  27  86 N7        29.83R
NEW MARKET*    CLOUDY    26  17  69 N3        29.83R
STAUNTON*      PTSUNNY   27  19  72 N7        29.82R
WAYNESBORO*    FAIR      23  15  70 NW5       29.79R

$$

WVZ021-048>050-054>055-271500-
EASTERN WEST VIRGINIA PANHANDLE

CITY           SKY/WX    TMP DP  RH WIND       PRES   REMARKS
MARTINSBURG    LGT SNOW  27  19  72 NW13G18   29.84R WCI  16
PETERSBURG*    PTSUNNY   20  19  94 CALM      29.88R

$$

VAZ036>039-050-271500-
CENTRAL FOOTHILLS

CITY           SKY/WX    TMP DP  RH WIND       PRES   REMARKS
CHARLOTTESVILL CLOUDY    30  25  81 CALM      29.80R
CULPEPER*      NOT AVBL
ORANGE*        LGT SNOW  32  28  86 CALM      29.83R
GORDONSVILLE*  FOG       28  27  94 CALM      29.81R VSB 1
WARRENTON*     CLOUDY    31  28  86 N13       29.82R WCI  21

$$

VAZ055>057-271500-
NORTH AND CENTRAL PIEDMONT

CITY           SKY/WX    TMP DP  RH WIND       PRES   REMARKS
FREDERICKSBRG* CLOUDY    31  26  81 N7        29.82S
STAFFORD*      CLOUDY    29  26  88 CALM      29.86R

$$

NCZ024-NYZ072-PAZ021-071-VAZ022-071-271500-
OTHER REGIONAL OBSERVATIONS

CITY           SKY/WX    TMP DP  RH WIND       PRES   REMARKS
NEW YORK CITY  CLOUDY    23  15  71 MISG      29.71R HAZE
PHILADELPHIA   LGT SNOW  27  22  81 N14       29.76R WCI  16
PITTSBURGH     LGT SNOW  19  16  88 NW9       29.92R WCI   8
ROANOKE        MOSUNNY   28   9  44 W9        29.85R WCI  19
RICHMOND       LGT SNOW  31  25  78 N15       29.81R FOG     WCI  20
RALEIGH        PTSUNNY   34  19  54 NW7       29.82R

$$

ANZ530>537-271500-
MARINE OBSERVATIONS

STATION/POSITION TIME  TEMP    WIND        PRES
                       AIR SEA DIR/SP/G
                 (UTC) (F)     (DEG/KT/KT) (MB)
THOMAS PT LIGHT  1400   29 36  330/ 13/ 15 1009.8R
BALT KEY BRIDGE  1400   29     310/ 13/ 15 1008.6S
COVE POINT       1400   29     350/ 19/ 23 1008.1R
LEWISETTA        1400   31 38  350/ 15/ 21 1008.3R
SOLOMONS ISLAND  1400      38                N/A
PINEY POINT      1400          360/ 16/ 19   N/A

$$




USA.gov is the U.S. government's official web portal to all federal, state and local government web resources and services.